Location: Capelle
(50.3413°N, 1.9974°E)
Time: 19:52:58
(UTC+00:00)

Meteor 1-16 Rocket - Pass Details

Date: 12 January 2026
Orbit: 789 x 905 km, 81.2° (Epoch: 15 February)

Event Time Altitude Azimuth Distance (km) Brightness Sun altitude
Rises 18:04:28 0° 348° (NNW) 3,300 7.3 -17.1°
Reaches altitude 10° 18:06:51 10° 350° (N) 2,365 6.5 -17.4°
Maximum altitude 18:12:10 76° 77° (ENE) 821 3.9 -18.2°
Drops below altitude 10° 18:17:30 10° 163° (SSE) 2,371 6.5 -19.1°
Sets 18:19:54 0° 165° (SSE) 3,308 7.2 -19.5°
